COSMOS 1818 COOLANT, 50787

Orbit data source: Space-Track

COSMOS 1818 COOLANT, 50787 is space debris in LEO originally from a launch on Sun, 01 Feb 1987 UTC launched from the Tyuratam Missile And Space Complex (TTMTR). Debris objects in space refer to the collection of defunct objects orbiting the Earth. Examples of debris include non-operational satellites, rocket bodies, and fragments generated from explosions, collisions, or faulty payload assembly.

Loading next visibility...
Identifier
50787, 1987-011BC
Orbit
LEO
Country
Flag of CISCIS
Related business
Manufacturer
Unknown
Mission
Spacecraft
Bus & Motor
Unknown
Mass
Unknown
Launch date (UTC)
1987-02-01 (39 years ago)
Launch vehicle
Unknown
Launch site
Tyuratam Missile And Space Complex (TTMTR)
Object type
Payload
Rocket body
Debris
Shape & HBR
Unknown shape, 0.1 m
Radar Cross Section
Small (<0.1 m²)

Expand to show TLE details & history
Last TLE update: 1 week ago

TLE from 1 week ago
0 COSMOS 1818 COOLANT
1 50787U 87011BC  26165.80710410  .00000580  00000-0  21698-3 0  9997
2 50787  65.0077 185.3979 0019991 287.5967 249.7405 14.39687094545500
Epoch: 2026-06-14T19:22Z
TLE epoch observation values (Epoch: 2026-06-14T19:22:13.794Z)
Latitude
2.52464°
Longitude
170.56647°
Altitude
766.187 km
Speed
7.469 km/s
True Right ascension
00h 16m 54s
True Declination
2° 30' 34"
Sunlit
Object was in daylight at epoch
Visualization orbit readout
Latitude
Unknown
Longitude
Unknown
Altitude
Unknown
Speed
Unknown
Apparent Right ascension
Unknown
Apparent Declination
Unknown
Sunlit
N/A
Visualization observer readout
Local Sidereal Time
21:33:54
Azimuth
Unknown
Elevation
Unknown
Doppler factor
Unknown
Orbital elements
Apogee altitude
772.37 km
Perigee altitude
743.838 km
Semi-major axis
7,136.241 km
Eccentricity
0.002
Inclination
65.0077°
RAAN
185.3979°
Arg. of periapsis
287.5967°
True anomaly
249.52578°
Mean anomaly
249.7405°
Eccentric anomaly
249.63312°
Mean motion
3.6003 °/min
Orbital period
99.99 mins
BSTAR
0.00021698
Loading maneuver chart data...
Computing Atmospheric mass density...

Documentation

Showing up to 5 results
|